Regional Weather Roundup
Issued by NWS Northern Indiana

Home | Current Version | Previous Version | Text Only | Print | Product List | Glossary Off
Versions: 1 2 3 4 5 6 7 8 9 10 11 12 13 14 15 16 17 18 19 20 21 22 23 24 25 26 27 28 29 30 31 32 33 34 35 36 37 38 39 40 41 42 43 44 45 46 47 48 49 50

000
ASUS43 KIWX 232300
RWRIWX

KIWX WEATHER ROUNDUP
NATIONAL WEATHER SERVICE NORTHERN INDIANA
700 PM EDT SAT JUL 23 2016

NOTE: "FAIR" INDICATES FEW OR NO CLOUDS BELOW 12,000 FEET WITH NO
SIGNIFICANT WEATHER AND/OR OBSTRUCTIONS TO VISIBILITY.

* THESE STATIONS ARE NOT UNDER NWS QUALITY CONTROL. THEY ALSO MAY NOT
  REPORT WEATHER SUCH AS PRECIPITATION OR FOG.

INZ001>027-240000-
NORTHERN INDIANA

CITY           SKY/WX    TMP DP  RH WIND       PRES   REMARKS
GARY*          PTSUNNY   90 N/A N/A S6        29.92F
KNOX*          PTSUNNY   86  68  54 W7        29.94F
SOUTH BEND     CLOUDY    90  75  61 N6        29.94F HX 100
MONTICELLO*    MOSUNNY   88  72  58 W3        29.94S
ANGOLA*          N/A     88  82  84 N3        29.97S HX 108
FORT WAYNE     PTSUNNY   88  74  63 SW7       29.95F HX  96
PERU/GRISSOM   PTSUNNY   90  75  62 W6        29.94F HX 100

$$
INZ028>050-240000-
CENTRAL INDIANA

CITY           SKY/WX    TMP DP  RH WIND       PRES   REMARKS
LAFAYETTE      MOSUNNY   86  77  74 SW5       29.94S HX  97
KOKOMO*        PTSUNNY   86  73  66 S6        29.95F
MUNCIE*        CLOUDY    87  73  62 NW6       29.96F
INDIANAPOLIS   PTSUNNY   89  72  56 SW7       29.95F HX  96

$$
MIZ043>046-050>051-056>058-064>065-071>073-077>080-240000-
SOUTHWEST LOWER MICHIGAN

CITY           SKY/WX    TMP DP  RH WIND       PRES   REMARKS
BATTLE CREEK   CLOUDY    85  65  51 SW7       29.98S
BENTON HARBOR  CLOUDY    84  71  65 VRB5      29.94F
COLDWATER*     CLOUDY    88  63  42 CALM      29.98S
HOLLAND        CLOUDY    84  71  65 W7        29.97S
GRAND RAPIDS   CLOUDY    89  65  44 E3        29.96S
KALAMAZOO      MOSUNNY   88  65  46 SE3       29.96F
STURGIS*       PTSUNNY   85  68  57 NE5       29.96S
THREE RIVERS*  FAIR      89  64  43 E6        29.96F

$$
OHZ001>008-015>018-024>025-240000-
NORTHWEST OHIO

CITY           SKY/WX    TMP DP  RH WIND       PRES   REMARKS
DEFIANCE       SUNNY     92  64  39 NE5       29.94F
FINDLAY        MOSUNNY   90  68  48 SW5       29.94F
TOLEDO EXPRESS MOSUNNY   91  69  48 N5        29.94F HX  96
TOLEDO METCALF PTSUNNY   91  64  40 E5        29.95F
LIMA           MOSUNNY   86  75  69 NE3       29.96F HX  95

$$
AND FOR LAKE MICHIGAN COASTAL AND OPEN LAKE BUOY OBSERVATIONS

STATION/POSITION TEMP    WIND        PRES    VSBY  WAVE
                 AIR SEA DIR/SP/G                  HT/PER
                 (F)     (DEG/KT/KT) (MB)    (MI)  (FT/S)
CALUMET HARBOR            90/  6/  9   N/A
MICHIGAN CITY     79      30/  8/  9   N/A
BURNS HARBOR      81      60/  9/ 11 1014.2S
SAINT JOSEPH      83      10/  4/  4 1014.6F
SOUTH LAKE BUOY   78 78   40/  4/  6 1013.9          0
4 MI NW BRIDGMAN  82      40/  4/  4 1013.5F         1
MICHIGAN CITY     80 78   60/  4/  6   N/A           1

$$
&&




USA.gov is the U.S. government's official web portal to all federal, state and local government web resources and services.